IGO6947 VOBL-VISR

Flight info

Callsign IGO6947
Flight time 3h 49m
Altitude 33000
Route LATID7B LATID Q22 VIRAM W57 SAKRO Q22 HIA/N0389F240 J3 TAMID/N0428F300 W20 UPTAR/N0388F240 J3 BPL/N0460F340 Q24 DPN J24 SAM J110 KIKED DCT 3309N07520E 3313N07519E 3316N07518E 3319N07517E 3322N07516E 3326N07515E 3328N07514E 3330N07513E 3332N07512E 3334N07511E 3336N07509E 3339N07508E 3341N07506E 3343N07504E 3344N07503E 3346N07501E 3347N07500E 3348N07459E 3349N07457E 3350N07456E 3351N07455E 3352N07454E 3352N07453E 3353N07453E 3354N07452E 3355N07451E 3356N07450E 3356N07449E 3357N07448E DCT 3358N07447E
Aircraft A21N/M-SDE2E3FGHIRWXY/LB1

Departure

Time 2026-04-29 09:28
Airport Kempegowda International Airport Bengaluru (VOBL)

Arrival

Time 2026-04-29 13:18
Airport Sheikh ul Alam International Airport (VISR)
Time Latitude Longitude Altitude Speed Heading
2026-04-29 09:01 13.20171 77.70763 2959 ft 0 kts 208°
2026-04-29 09:19 13.20172 77.70763 2988 ft 2 kts 208°
2026-04-29 09:20 13.20188 77.70773 2948 ft 3 kts 208°
2026-04-29 09:20 13.20204 77.70782 2955 ft 2 kts 207°
2026-04-29 09:20 13.20221 77.70783 2951 ft 3 kts 148°
2026-04-29 09:20 13.20231 77.70770 2950 ft 2 kts 90°
2026-04-29 09:21 13.20232 77.70771 2950 ft 1 kts 87°
2026-04-29 09:21 13.20232 77.70784 2952 ft 3 kts 86°
2026-04-29 09:21 13.20234 77.70808 2954 ft 4 kts 84°
2026-04-29 09:21 13.20239 77.70852 2951 ft 9 kts 89°
2026-04-29 09:22 13.20240 77.70939 2953 ft 14 kts 90°
2026-04-29 09:22 13.20240 77.71044 2947 ft 15 kts 90°
2026-04-29 09:22 13.20239 77.71159 2952 ft 17 kts 89°
2026-04-29 09:22 13.20237 77.71277 2949 ft 17 kts 92°
2026-04-29 09:23 13.20237 77.71401 2946 ft 17 kts 89°
2026-04-29 09:23 13.20259 77.71500 2938 ft 12 kts 77°
2026-04-29 09:23 13.20260 77.71590 2942 ft 13 kts 90°
2026-04-29 09:23 13.20262 77.71683 2940 ft 13 kts 85°
2026-04-29 09:24 13.20287 77.71718 2931 ft 4 kts 41°
2026-04-29 09:24 13.20315 77.71743 2931 ft 7 kts 40°
2026-04-29 09:24 13.20373 77.71781 2932 ft 12 kts 18°
2026-04-29 09:24 13.20465 77.71787 2935 ft 14 kts
2026-04-29 09:25 13.20522 77.71861 2936 ft 16 kts 90°
2026-04-29 09:25 13.20516 77.71980 2929 ft 17 kts 93°
2026-04-29 09:25 13.20514 77.72110 2930 ft 19 kts 91°
2026-04-29 09:25 13.20518 77.72251 2927 ft 18 kts 72°
2026-04-29 09:26 13.20577 77.72284 2926 ft 6 kts
2026-04-29 09:26 13.20625 77.72281 2927 ft 7 kts 351°
2026-04-29 09:26 13.20671 77.72253 2927 ft 9 kts 310°
2026-04-29 09:26 13.20690 77.72184 2928 ft 14 kts 270°
2026-04-29 09:27 13.20689 77.72173 2929 ft 0 kts 269°
2026-04-29 09:27 13.20689 77.72127 2930 ft 26 kts 269°
2026-04-29 09:27 13.20692 77.71697 2940 ft 93 kts 270°
2026-04-29 09:27 13.20695 77.71153 2953 ft 137 kts 269°
2026-04-29 09:28 13.20657 77.70008 3104 ft 177 kts 267°
2026-04-29 09:28 13.20681 77.68698 3546 ft 189 kts 274°
2026-04-29 09:28 13.21141 77.67426 3891 ft 196 kts 304°
2026-04-29 09:28 13.21892 77.66248 4312 ft 198 kts 304°
2026-04-29 09:29 13.22665 77.65056 4691 ft 207 kts 303°
2026-04-29 09:29 13.24324 77.62346 5041 ft 242 kts 301°
2026-04-29 09:29 13.25525 77.60292 5308 ft 262 kts 301°
2026-04-29 09:30 13.26157 77.59197 5573 ft 265 kts 301°
2026-04-29 09:30 13.27092 77.57571 6142 ft 264 kts 301°
2026-04-29 09:30 13.28026 77.55943 6641 ft 266 kts 301°
2026-04-29 09:30 13.28973 77.54291 7096 ft 270 kts 301°
2026-04-29 09:31 13.29946 77.52625 7567 ft 274 kts 305°
2026-04-29 09:31 13.31357 77.51348 8009 ft 274 kts 337°
2026-04-29 09:31 13.33228 77.51052 8349 ft 280 kts 10°
2026-04-29 09:31 13.35015 77.51856 8726 ft 287 kts 39°
2026-04-29 09:32 13.36560 77.53120 9332 ft 289 kts 31°
2026-04-29 09:32 13.38393 77.53990 9959 ft 292 kts 20°
2026-04-29 09:32 13.40367 77.54642 10326 ft 306 kts 17°
2026-04-29 09:32 13.42470 77.55250 10541 ft 322 kts 17°
2026-04-29 09:33 13.44678 77.55905 10779 ft 338 kts 18°
2026-04-29 09:33 13.46961 77.56641 11025 ft 350 kts 19°
2026-04-29 09:33 13.49296 77.57452 11386 ft 357 kts 20°
2026-04-29 09:33 13.51645 77.58312 11864 ft 360 kts 21°
2026-04-29 09:34 13.54007 77.59201 12350 ft 363 kts 21°
2026-04-29 09:34 13.56389 77.60107 12779 ft 368 kts 22°
2026-04-29 09:34 13.58803 77.61030 13268 ft 371 kts 22°
2026-04-29 09:34 13.61230 77.61957 13813 ft 373 kts 22°
2026-04-29 09:35 13.63669 77.62885 14255 ft 375 kts 21°
2026-04-29 09:35 13.66134 77.63822 14706 ft 379 kts 21°
2026-04-29 09:35 13.68610 77.64762 15161 ft 381 kts 21°
2026-04-29 09:35 13.71103 77.65711 15644 ft 383 kts 21°
2026-04-29 09:36 13.73573 77.66652 16104 ft 385 kts 20°
2026-04-29 09:36 13.76095 77.67611 16567 ft 387 kts 20°
2026-04-29 09:36 13.78627 77.68571 16980 ft 390 kts 19°
2026-04-29 09:36 13.81184 77.69537 17358 ft 393 kts 19°
2026-04-29 09:37 13.83761 77.70512 17750 ft 395 kts 19°
2026-04-29 09:37 13.86350 77.71492 18084 ft 398 kts 19°
2026-04-29 09:37 13.88960 77.72481 18377 ft 401 kts 19°
2026-04-29 09:37 13.91586 77.73479 18626 ft 404 kts 18°
2026-04-29 09:38 13.94229 77.74483 18869 ft 406 kts 18°
2026-04-29 09:38 13.96888 77.75493 19129 ft 408 kts 18°
2026-04-29 09:38 13.99563 77.76510 19370 ft 410 kts 18°
2026-04-29 09:38 14.02244 77.77530 19593 ft 412 kts 18°
2026-04-29 09:39 14.04939 77.78554 19809 ft 414 kts 18°
2026-04-29 09:39 14.07649 77.79585 20035 ft 415 kts 18°
2026-04-29 09:39 14.10365 77.80619 20251 ft 417 kts 18°
2026-04-29 09:39 14.13096 77.81660 20464 ft 419 kts 18°
2026-04-29 09:40 14.15839 77.82706 20699 ft 421 kts 18°
2026-04-29 09:40 14.18592 77.83755 20931 ft 423 kts 18°
2026-04-29 09:40 14.21360 77.84811 21158 ft 425 kts 18°
2026-04-29 09:40 14.24103 77.85857 21402 ft 427 kts 18°
2026-04-29 09:41 14.26893 77.86921 21647 ft 429 kts 18°
2026-04-29 09:41 14.29740 77.88007 21859 ft 431 kts 18°
2026-04-29 09:41 14.32522 77.89068 22102 ft 433 kts 17°
2026-04-29 09:41 14.35355 77.90149 22330 ft 435 kts 17°
2026-04-29 09:42 14.38201 77.91235 22569 ft 437 kts 17°
2026-04-29 09:42 14.41063 77.92327 22807 ft 439 kts 17°
2026-04-29 09:42 14.43933 77.93424 23042 ft 441 kts 17°
2026-04-29 09:42 14.46843 77.94444 23278 ft 441 kts 12°
2026-04-29 09:43 14.49836 77.95154 23492 ft 442 kts
2026-04-29 09:43 14.52861 77.95757 23684 ft 443 kts
2026-04-29 09:43 14.55901 77.96300 23908 ft 444 kts
2026-04-29 09:43 14.58957 77.96812 24163 ft 445 kts
2026-04-29 09:44 14.62022 77.97314 24434 ft 446 kts
2026-04-29 09:44 14.65091 77.97817 24719 ft 447 kts
2026-04-29 09:44 14.68180 77.98326 24992 ft 449 kts
2026-04-29 09:44 14.71265 77.98841 25258 ft 450 kts
2026-04-29 09:45 14.74362 77.99361 25499 ft 452 kts
2026-04-29 09:45 14.77430 77.99879 25769 ft 453 kts
2026-04-29 09:45 14.80548 78.00407 26032 ft 454 kts
2026-04-29 09:45 14.83673 78.00937 26280 ft 456 kts
2026-04-29 09:46 14.86811 78.01470 26521 ft 457 kts
2026-04-29 09:46 14.89959 78.02005 26760 ft 459 kts
2026-04-29 09:46 14.93121 78.02541 26993 ft 460 kts
2026-04-29 09:46 14.96286 78.03078 27219 ft 462 kts
2026-04-29 09:47 14.99465 78.03617 27452 ft 463 kts
2026-04-29 09:47 15.02650 78.04158 27675 ft 465 kts
2026-04-29 09:47 15.05848 78.04700 27902 ft 466 kts
2026-04-29 09:47 15.09060 78.05246 28110 ft 468 kts
2026-04-29 09:48 15.12269 78.05791 28402 ft 467 kts
2026-04-29 09:48 15.15437 78.06331 28728 ft 466 kts
2026-04-29 09:48 15.18629 78.06875 29037 ft 465 kts
2026-04-29 09:48 15.21819 78.07418 29315 ft 464 kts
2026-04-29 09:49 15.25001 78.07960 29612 ft 463 kts
2026-04-29 09:49 15.28185 78.08502 29910 ft 462 kts
2026-04-29 09:49 15.31356 78.09042 30158 ft 462 kts
2026-04-29 09:49 15.34529 78.09582 30379 ft 462 kts
2026-04-29 09:50 15.37706 78.10117 30585 ft 462 kts
2026-04-29 09:50 15.40882 78.10643 30792 ft 462 kts
2026-04-29 09:50 15.44050 78.11164 31030 ft 461 kts
2026-04-29 09:50 15.47218 78.11684 31260 ft 460 kts
2026-04-29 09:51 15.50382 78.12203 31489 ft 460 kts
2026-04-29 09:51 15.53537 78.12721 31735 ft 459 kts
2026-04-29 09:51 15.56691 78.13240 31948 ft 458 kts
2026-04-29 09:51 15.59799 78.13752 32168 ft 458 kts
2026-04-29 09:52 15.62985 78.14277 32383 ft 457 kts
2026-04-29 09:52 15.66127 78.14797 32598 ft 457 kts
2026-04-29 09:52 15.69229 78.15309 32781 ft 457 kts
2026-04-29 09:52 15.72369 78.15826 32816 ft 457 kts
2026-04-29 09:53 15.78656 78.16853 32821 ft 457 kts
2026-04-29 09:53 15.84940 78.17875 32818 ft 457 kts
2026-04-29 09:54 15.91220 78.18897 32821 ft 457 kts
2026-04-29 09:54 15.97499 78.19920 32819 ft 457 kts
2026-04-29 09:55 16.03778 78.20946 32836 ft 457 kts
2026-04-29 09:55 16.10053 78.21971 32826 ft 456 kts
2026-04-29 09:56 16.16323 78.22995 32829 ft 456 kts
2026-04-29 09:56 16.22588 78.24018 32830 ft 456 kts
2026-04-29 09:57 16.28859 78.25045 32831 ft 456 kts
2026-04-29 09:57 16.35087 78.26064 32836 ft 456 kts
2026-04-29 09:58 16.41345 78.27089 32835 ft 454 kts
2026-04-29 09:58 16.47578 78.28112 32839 ft 452 kts
2026-04-29 09:59 16.53794 78.29132 32840 ft 452 kts
2026-04-29 09:59 16.60016 78.30153 32841 ft 452 kts
2026-04-29 10:00 16.66233 78.31176 32842 ft 452 kts
2026-04-29 10:00 16.72449 78.32198 32871 ft 452 kts
2026-04-29 10:01 16.78666 78.33222 32849 ft 452 kts
2026-04-29 10:01 16.84837 78.34239 32848 ft 452 kts
2026-04-29 10:02 16.91053 78.35263 32860 ft 452 kts
2026-04-29 10:02 16.97265 78.36288 32859 ft 452 kts
2026-04-29 10:03 17.03480 78.37315 32858 ft 452 kts
2026-04-29 10:03 17.09693 78.38341 32861 ft 452 kts
2026-04-29 10:04 17.15919 78.39370 32858 ft 453 kts
2026-04-29 10:04 17.22152 78.40237 32863 ft 448 kts 356°
2026-04-29 10:05 17.28310 78.39830 32860 ft 443 kts 349°
2026-04-29 10:05 17.34423 78.39031 32852 ft 442 kts 347°
2026-04-29 10:06 17.40478 78.38162 32858 ft 442 kts 347°
2026-04-29 10:06 17.46573 78.37299 32819 ft 441 kts 347°
2026-04-29 10:07 17.52653 78.36455 32831 ft 441 kts 347°
2026-04-29 10:07 17.58731 78.35616 32851 ft 441 kts 347°
2026-04-29 10:08 17.64812 78.34778 32846 ft 441 kts 347°
2026-04-29 10:08 17.70900 78.33938 32841 ft 441 kts 347°
2026-04-29 10:09 17.76977 78.33098 32842 ft 440 kts 347°
2026-04-29 10:09 17.83037 78.32261 32834 ft 439 kts 347°
2026-04-29 10:10 17.89097 78.31422 32834 ft 439 kts 347°
2026-04-29 10:10 17.95105 78.30588 32830 ft 439 kts 347°
2026-04-29 10:11 18.01161 78.29749 32826 ft 439 kts 347°
2026-04-29 10:11 18.07218 78.28909 32825 ft 439 kts 347°
2026-04-29 10:12 18.13270 78.28069 32823 ft 438 kts 347°
2026-04-29 10:12 18.19318 78.27229 32823 ft 438 kts 347°
2026-04-29 10:13 18.25371 78.26388 32821 ft 438 kts 347°
2026-04-29 10:13 18.31413 78.25548 32820 ft 438 kts 347°
2026-04-29 10:14 18.36439 78.24848 32817 ft 438 kts 347°
2026-04-29 10:14 18.42487 78.24007 32817 ft 438 kts 347°
2026-04-29 10:15 18.48538 78.23164 32813 ft 438 kts 347°
2026-04-29 10:15 18.54587 78.22321 32812 ft 438 kts 347°
2026-04-29 10:16 18.60589 78.21484 32812 ft 438 kts 347°
2026-04-29 10:16 18.66637 78.20639 32801 ft 438 kts 347°
2026-04-29 10:17 18.72683 78.19794 32804 ft 438 kts 347°
2026-04-29 10:17 18.78725 78.18949 32796 ft 438 kts 347°
2026-04-29 10:18 18.84768 78.18103 32798 ft 438 kts 347°
2026-04-29 10:18 18.90811 78.17256 32790 ft 438 kts 347°
2026-04-29 10:19 18.96854 78.16410 32790 ft 438 kts 347°
2026-04-29 10:19 19.02900 78.15562 32791 ft 438 kts 347°
2026-04-29 10:20 19.08943 78.14713 32794 ft 438 kts 347°
2026-04-29 10:20 19.14990 78.13862 32786 ft 438 kts 348°
2026-04-29 10:21 19.20993 78.13019 32788 ft 438 kts 348°
2026-04-29 10:21 19.27034 78.12112 32789 ft 437 kts 346°
2026-04-29 10:22 19.33026 78.10988 32784 ft 436 kts 345°
2026-04-29 10:22 19.39001 78.09813 32787 ft 436 kts 345°
2026-04-29 10:23 19.44970 78.08653 32780 ft 436 kts 345°
2026-04-29 10:23 19.50901 78.07518 32779 ft 436 kts 345°
2026-04-29 10:24 19.56866 78.06380 32777 ft 435 kts 345°
2026-04-29 10:24 19.62834 78.05241 32776 ft 435 kts 345°
2026-04-29 10:25 19.68802 78.04102 32769 ft 436 kts 345°
2026-04-29 10:25 19.74768 78.02961 32781 ft 435 kts 345°
2026-04-29 10:26 19.80714 78.01823 32760 ft 433 kts 345°
2026-04-29 10:26 19.86653 78.00685 32760 ft 433 kts 345°
2026-04-29 10:27 19.95520 77.98984 32757 ft 433 kts 345°
2026-04-29 10:28 20.01454 77.97844 32755 ft 433 kts 345°
2026-04-29 10:28 20.07396 77.96703 32763 ft 434 kts 346°
2026-04-29 10:29 20.13371 77.95721 32752 ft 435 kts 348°
2026-04-29 10:29 20.19373 77.94861 32755 ft 435 kts 348°
2026-04-29 10:30 20.25384 77.94010 32756 ft 435 kts 348°
2026-04-29 10:30 20.31385 77.93143 32757 ft 435 kts 348°
2026-04-29 10:31 20.37384 77.92266 32754 ft 435 kts 348°
2026-04-29 10:31 20.43342 77.91393 32752 ft 435 kts 348°
2026-04-29 10:32 20.49332 77.90513 32749 ft 434 kts 348°
2026-04-29 10:32 20.55324 77.89633 32749 ft 434 kts 348°
2026-04-29 10:33 20.61317 77.88754 32743 ft 434 kts 348°
2026-04-29 10:33 20.67304 77.87874 32744 ft 434 kts 348°
2026-04-29 10:34 20.73297 77.86992 32737 ft 434 kts 348°
2026-04-29 10:34 20.79275 77.86112 32735 ft 433 kts 349°
2026-04-29 10:35 20.85205 77.85239 32734 ft 433 kts 349°
2026-04-29 10:35 20.91173 77.84361 32738 ft 433 kts 348°
2026-04-29 10:36 20.97153 77.83479 32734 ft 433 kts 349°
2026-04-29 10:36 21.03123 77.82599 32741 ft 433 kts 349°
2026-04-29 10:37 21.09097 77.81716 32736 ft 433 kts 348°
2026-04-29 10:37 21.15030 77.80839 32746 ft 433 kts 348°
2026-04-29 10:38 21.20996 77.79957 32747 ft 433 kts 348°
2026-04-29 10:38 21.26962 77.79073 32753 ft 433 kts 348°
2026-04-29 10:39 21.32931 77.78188 32760 ft 433 kts 348°
2026-04-29 10:39 21.38891 77.77304 32766 ft 429 kts 348°
2026-04-29 10:40 21.44776 77.76433 32767 ft 426 kts 348°
2026-04-29 10:40 21.50646 77.75560 32765 ft 426 kts 348°
2026-04-29 10:41 21.56516 77.74685 32767 ft 425 kts 348°
2026-04-29 10:41 21.62378 77.73813 32772 ft 425 kts 348°
2026-04-29 10:42 21.68203 77.72947 32772 ft 425 kts 348°
2026-04-29 10:42 21.74065 77.72074 32772 ft 425 kts 348°
2026-04-29 10:43 21.79924 77.71200 32774 ft 425 kts 348°
2026-04-29 10:43 21.85781 77.70325 32772 ft 425 kts 348°
2026-04-29 10:44 21.91640 77.69449 32770 ft 425 kts 348°
2026-04-29 10:44 21.97495 77.68574 32770 ft 425 kts 348°
2026-04-29 10:45 22.03344 77.67699 32765 ft 423 kts 348°
2026-04-29 10:45 22.09172 77.66826 32765 ft 422 kts 348°
2026-04-29 10:46 22.14991 77.65954 32766 ft 422 kts 348°
2026-04-29 10:46 22.20811 77.65081 32767 ft 422 kts 348°
2026-04-29 10:47 22.26633 77.64205 32758 ft 422 kts 348°
2026-04-29 10:47 22.32451 77.63331 32756 ft 422 kts 348°
2026-04-29 10:48 22.38254 77.62458 32752 ft 421 kts 348°
2026-04-29 10:48 22.44053 77.61586 32754 ft 420 kts 348°
2026-04-29 10:49 22.49848 77.60713 32737 ft 420 kts 348°
2026-04-29 10:49 22.55640 77.59839 32742 ft 420 kts 348°
2026-04-29 10:50 22.61428 77.58966 32746 ft 420 kts 348°
2026-04-29 10:50 22.67207 77.58093 32742 ft 418 kts 348°
2026-04-29 10:51 22.72961 77.57222 32737 ft 417 kts 348°
2026-04-29 10:51 22.78705 77.56353 32736 ft 417 kts 348°
2026-04-29 10:52 22.84447 77.55484 32736 ft 417 kts 348°
2026-04-29 10:52 22.90173 77.54616 32736 ft 417 kts 348°
2026-04-29 10:53 22.95924 77.53743 32743 ft 416 kts 348°
2026-04-29 10:53 23.01662 77.52877 32733 ft 416 kts 348°
2026-04-29 10:54 23.07399 77.52009 32733 ft 416 kts 348°
2026-04-29 10:54 23.13128 77.51134 32735 ft 416 kts 348°
2026-04-29 10:55 23.18860 77.50258 32736 ft 416 kts 348°
2026-04-29 10:55 23.24552 77.49390 32723 ft 416 kts 348°
2026-04-29 10:56 23.30271 77.48519 32722 ft 414 kts 348°
2026-04-29 10:56 23.35972 77.47649 32723 ft 414 kts 348°
2026-04-29 10:57 23.41673 77.46778 32723 ft 414 kts 348°
2026-04-29 10:57 23.47376 77.45906 32725 ft 413 kts 348°
2026-04-29 10:58 23.53074 77.45034 32728 ft 413 kts 348°
2026-04-29 10:58 23.58777 77.44161 32732 ft 415 kts 348°
2026-04-29 10:59 23.64513 77.43280 32733 ft 417 kts 348°
2026-04-29 10:59 23.70259 77.42398 32730 ft 417 kts 348°
2026-04-29 11:00 23.75972 77.41521 32738 ft 417 kts 348°
2026-04-29 11:00 23.81713 77.40639 32740 ft 417 kts 348°
2026-04-29 11:01 23.87458 77.39755 32745 ft 417 kts 347°
2026-04-29 11:01 23.93213 77.38870 32745 ft 418 kts 347°
2026-04-29 11:02 23.98976 77.37981 32742 ft 418 kts 347°
2026-04-29 11:02 24.03769 77.37242 32749 ft 418 kts 347°
2026-04-29 11:03 24.09531 77.36353 32747 ft 418 kts 347°
2026-04-29 11:03 24.15293 77.35462 32751 ft 418 kts 347°
2026-04-29 11:04 24.21063 77.34570 32746 ft 420 kts 347°
2026-04-29 11:04 24.26858 77.33673 32742 ft 421 kts 347°
2026-04-29 11:05 24.32666 77.32773 32748 ft 421 kts 347°
2026-04-29 11:05 24.38428 77.31879 32745 ft 421 kts 347°
2026-04-29 11:06 24.44226 77.30979 32745 ft 421 kts 347°
2026-04-29 11:06 24.50021 77.30079 32747 ft 421 kts 347°
2026-04-29 11:07 24.55832 77.29175 32745 ft 422 kts 347°
2026-04-29 11:07 24.61648 77.28270 32744 ft 422 kts 347°
2026-04-29 11:08 24.67461 77.27365 32747 ft 422 kts 347°
2026-04-29 11:08 24.73343 77.26831 32747 ft 425 kts 352°
2026-04-29 11:09 24.79261 77.26542 32744 ft 426 kts 352°
2026-04-29 11:09 24.85184 77.26299 32747 ft 426 kts 352°
2026-04-29 11:10 24.91110 77.26058 32744 ft 426 kts 352°
2026-04-29 11:10 24.96994 77.25810 32741 ft 426 kts 352°
2026-04-29 11:11 25.02914 77.25570 32746 ft 426 kts 353°
2026-04-29 11:11 25.08835 77.25355 32759 ft 426 kts 353°
2026-04-29 11:12 25.14775 77.25143 32741 ft 427 kts 352°
2026-04-29 11:12 25.20721 77.24929 32743 ft 428 kts 352°
2026-04-29 11:13 25.26674 77.24715 32744 ft 428 kts 352°
2026-04-29 11:13 25.32627 77.24499 32744 ft 428 kts 352°
2026-04-29 11:14 25.38543 77.24284 32746 ft 428 kts 352°
2026-04-29 11:14 25.44514 77.24065 32745 ft 431 kts 352°
2026-04-29 11:15 25.50521 77.23844 32739 ft 432 kts 352°
2026-04-29 11:15 25.56543 77.23626 32739 ft 432 kts 352°
2026-04-29 11:16 25.62555 77.23407 32735 ft 432 kts 352°
2026-04-29 11:16 25.68573 77.23187 32731 ft 432 kts 352°
2026-04-29 11:17 25.74585 77.22967 32732 ft 431 kts 352°
2026-04-29 11:17 25.80585 77.22748 32732 ft 431 kts 352°
2026-04-29 11:18 25.86513 77.22533 32724 ft 427 kts 352°
2026-04-29 11:18 25.92455 77.22316 32723 ft 427 kts 352°
2026-04-29 11:19 25.98395 77.22097 32718 ft 427 kts 352°
2026-04-29 11:19 26.04339 77.21876 32716 ft 429 kts 352°
2026-04-29 11:20 26.10313 77.21654 32714 ft 429 kts 352°
2026-04-29 11:20 26.16283 77.21417 32714 ft 429 kts 352°
2026-04-29 11:21 26.22246 77.21117 32714 ft 429 kts 351°
2026-04-29 11:21 26.28209 77.20801 32713 ft 429 kts 352°
2026-04-29 11:22 26.34145 77.20489 32711 ft 430 kts 351°
2026-04-29 11:22 26.40123 77.20180 32710 ft 430 kts 351°
2026-04-29 11:23 26.46098 77.19874 32710 ft 430 kts 351°
2026-04-29 11:23 26.52089 77.19566 32711 ft 430 kts 351°
2026-04-29 11:24 26.58075 77.19258 32700 ft 430 kts 351°
2026-04-29 11:24 26.64065 77.18948 32701 ft 432 kts 352°
2026-04-29 11:25 26.70044 77.18638 32683 ft 433 kts 352°
2026-04-29 11:25 26.76064 77.18329 32686 ft 433 kts 352°
2026-04-29 11:26 26.85098 77.17862 32670 ft 433 kts 352°
2026-04-29 11:26 26.91120 77.17550 32657 ft 433 kts 352°
2026-04-29 11:27 26.97153 77.17237 32653 ft 434 kts 352°
2026-04-29 11:27 27.03185 77.16924 32647 ft 434 kts 352°
2026-04-29 11:28 27.09220 77.16610 32647 ft 434 kts 352°
2026-04-29 11:28 27.15253 77.16296 32647 ft 434 kts 352°
2026-04-29 11:29 27.21254 77.15982 32647 ft 434 kts 352°
2026-04-29 11:29 27.27304 77.15666 32647 ft 435 kts 352°
2026-04-29 11:30 27.33355 77.15350 32647 ft 435 kts 352°
2026-04-29 11:30 27.39410 77.15034 32648 ft 435 kts 352°
2026-04-29 11:31 27.45462 77.14717 32647 ft 435 kts 352°
2026-04-29 11:31 27.51481 77.14402 32649 ft 436 kts 352°
2026-04-29 11:32 27.57553 77.14084 32648 ft 437 kts 352°
2026-04-29 11:32 27.63622 77.13767 32647 ft 437 kts 352°
2026-04-29 11:33 27.69700 77.13466 32650 ft 437 kts 352°
2026-04-29 11:33 27.75779 77.13179 32650 ft 437 kts 352°
2026-04-29 11:34 27.81859 77.12893 32650 ft 437 kts 352°
2026-04-29 11:34 27.87934 77.12606 32653 ft 437 kts 353°
2026-04-29 11:35 27.93969 77.12318 32656 ft 437 kts 352°
2026-04-29 11:35 28.00044 77.12027 32654 ft 437 kts 352°
2026-04-29 11:36 28.06123 77.11735 32677 ft 437 kts 353°
2026-04-29 11:36 28.12211 77.11443 32654 ft 438 kts 353°
2026-04-29 11:37 28.18305 77.11151 32667 ft 438 kts 353°
2026-04-29 11:37 28.24402 77.10859 32670 ft 438 kts 353°
2026-04-29 11:38 28.30460 77.10569 32677 ft 438 kts 353°
2026-04-29 11:38 28.36558 77.10275 32684 ft 439 kts 353°
2026-04-29 11:39 28.42674 77.09980 32667 ft 441 kts 353°
2026-04-29 11:39 28.48806 77.09685 32666 ft 441 kts 353°
2026-04-29 11:40 28.54799 77.08619 32663 ft 433 kts 338°
2026-04-29 11:40 28.60059 77.05490 32667 ft 425 kts 319°
2026-04-29 11:41 28.64503 77.01046 32673 ft 426 kts 315°
2026-04-29 11:41 28.68795 76.96344 32676 ft 429 kts 314°
2026-04-29 11:42 28.73079 76.91619 32678 ft 429 kts 314°
2026-04-29 11:42 28.77389 76.86914 32695 ft 429 kts 315°
2026-04-29 11:43 28.81945 76.82579 32696 ft 433 kts 325°
2026-04-29 11:43 28.87419 76.79640 32691 ft 437 kts 335°
2026-04-29 11:44 28.93132 76.77218 32687 ft 439 kts 338°
2026-04-29 11:44 28.98901 76.74883 32685 ft 440 kts 338°
2026-04-29 11:45 29.04671 76.72526 32686 ft 440 kts 338°
2026-04-29 11:45 29.10429 76.70144 32686 ft 440 kts 337°
2026-04-29 11:46 29.16187 76.67747 32703 ft 440 kts 337°
2026-04-29 11:46 29.21964 76.65339 32686 ft 443 kts 337°
2026-04-29 11:47 29.27755 76.62923 32683 ft 443 kts 337°
2026-04-29 11:47 29.33515 76.60518 32683 ft 443 kts 337°
2026-04-29 11:48 29.39313 76.58094 32686 ft 443 kts 337°
2026-04-29 11:48 29.39532 76.58003 32686 ft 443 kts 337°
2026-04-29 12:10 29.39840 76.57873 33701 ft 443 kts 338°
2026-04-29 12:10 29.42753 76.56655 32613 ft 448 kts 337°
2026-04-29 12:11 29.48596 76.54210 32694 ft 445 kts 337°
2026-04-29 12:11 29.54407 76.51774 32694 ft 444 kts 337°
2026-04-29 12:12 29.60212 76.49337 32686 ft 444 kts 337°
2026-04-29 12:12 29.66003 76.46901 32690 ft 443 kts 337°
2026-04-29 12:13 29.71800 76.44461 32697 ft 443 kts 336°
2026-04-29 12:13 29.77601 76.42016 32681 ft 444 kts 336°
2026-04-29 12:14 29.83360 76.39585 32687 ft 444 kts 336°
2026-04-29 12:14 29.89164 76.37133 32689 ft 444 kts 336°
2026-04-29 12:15 29.94965 76.34680 32691 ft 444 kts 336°
2026-04-29 12:15 30.00770 76.32221 32688 ft 444 kts 336°
2026-04-29 12:16 30.06577 76.29759 32687 ft 444 kts 336°
2026-04-29 12:16 30.12377 76.27296 32683 ft 444 kts 336°
2026-04-29 12:17 30.18182 76.24828 32689 ft 444 kts 336°
2026-04-29 12:17 30.23988 76.22357 32703 ft 444 kts 336°
2026-04-29 12:18 30.29770 76.19892 32691 ft 447 kts 336°
2026-04-29 12:18 30.35612 76.17399 32689 ft 448 kts 336°
2026-04-29 12:19 30.41456 76.14903 32689 ft 448 kts 336°
2026-04-29 12:19 30.47300 76.12403 32690 ft 447 kts 336°
2026-04-29 12:20 30.53137 76.09903 32691 ft 447 kts 336°
2026-04-29 12:20 30.58975 76.07399 32690 ft 447 kts 336°
2026-04-29 12:21 30.64811 76.04893 32693 ft 447 kts 336°
2026-04-29 12:21 30.70610 76.02399 32690 ft 447 kts 336°
2026-04-29 12:22 30.76445 75.99887 32707 ft 447 kts 336°
2026-04-29 12:22 30.82277 75.97373 32694 ft 446 kts 336°
2026-04-29 12:23 30.88105 75.94858 32694 ft 446 kts 336°
2026-04-29 12:23 30.93924 75.92341 32694 ft 446 kts 336°
2026-04-29 12:24 30.99749 75.89820 32692 ft 446 kts 336°
2026-04-29 12:24 31.05568 75.87300 32692 ft 446 kts 336°
2026-04-29 12:25 31.11375 75.84779 32691 ft 445 kts 335°
2026-04-29 12:26 31.20080 75.80995 32697 ft 445 kts 335°
2026-04-29 12:26 31.25883 75.78468 32697 ft 445 kts 335°
2026-04-29 12:27 31.31688 75.75936 32700 ft 445 kts 336°
2026-04-29 12:27 31.37485 75.73407 32699 ft 444 kts 336°
2026-04-29 12:28 31.43274 75.70878 32702 ft 444 kts 336°
2026-04-29 12:28 31.49069 75.68343 32708 ft 444 kts 336°
2026-04-29 12:29 31.54822 75.65824 32712 ft 444 kts 336°
2026-04-29 12:29 31.60613 75.63282 32714 ft 444 kts 336°
2026-04-29 12:30 31.66410 75.60735 32713 ft 444 kts 336°
2026-04-29 12:30 31.72195 75.58189 32711 ft 444 kts 336°
2026-04-29 12:31 31.77987 75.55637 32711 ft 444 kts 336°
2026-04-29 12:31 31.83779 75.53082 32714 ft 445 kts 336°
2026-04-29 12:32 31.89739 75.51078 32722 ft 449 kts 347°
2026-04-29 12:32 31.95945 75.50031 32716 ft 451 kts 349°
2026-04-29 12:33 32.02188 75.49177 32719 ft 452 kts 349°
2026-04-29 12:33 32.08431 75.48343 32721 ft 451 kts 350°
2026-04-29 12:34 32.14624 75.47494 32722 ft 451 kts 349°
2026-04-29 12:34 32.20851 75.46624 32726 ft 450 kts 349°
2026-04-29 12:35 32.27075 75.45749 32724 ft 450 kts 349°
2026-04-29 12:35 32.33303 75.44873 32728 ft 451 kts 349°
2026-04-29 12:36 32.39539 75.43995 32727 ft 451 kts 349°
2026-04-29 12:36 32.45771 75.43118 32743 ft 451 kts 349°
2026-04-29 12:37 32.52012 75.42240 32773 ft 451 kts 349°
2026-04-29 12:37 32.58231 75.41363 32779 ft 449 kts 350°
2026-04-29 12:38 32.64426 75.40486 32792 ft 448 kts 350°
2026-04-29 12:38 32.70573 75.39614 32793 ft 447 kts 350°
2026-04-29 12:39 32.76755 75.38735 32825 ft 447 kts 350°
2026-04-29 12:39 32.82938 75.37857 32867 ft 447 kts 350°
2026-04-29 12:40 32.89125 75.36977 32851 ft 448 kts 350°
2026-04-29 12:40 32.95314 75.36099 32863 ft 448 kts 350°
2026-04-29 12:41 33.00456 75.35367 32829 ft 447 kts 350°
2026-04-29 12:41 33.06641 75.34483 32865 ft 447 kts 350°
2026-04-29 12:42 33.12818 75.33598 32866 ft 447 kts 350°
2026-04-29 12:42 33.18955 75.32444 32904 ft 446 kts 346°
2026-04-29 12:43 33.24979 75.30736 32941 ft 444 kts 342°
2026-04-29 12:43 33.27938 75.29721 32684 ft 440 kts 341°
2026-04-29 12:43 33.30865 75.28688 32104 ft 436 kts 341°
2026-04-29 12:43 33.33768 75.27665 31613 ft 434 kts 341°
2026-04-29 12:44 33.36666 75.26672 31082 ft 433 kts 343°
2026-04-29 12:44 33.39555 75.25818 30568 ft 433 kts 345°
2026-04-29 12:44 33.42477 75.24968 30060 ft 430 kts 341°
2026-04-29 12:44 33.45285 75.23804 29487 ft 425 kts 338°
2026-04-29 12:45 33.48037 75.22553 28897 ft 421 kts 336°
2026-04-29 12:45 33.50753 75.21259 28321 ft 417 kts 336°
2026-04-29 12:45 33.53425 75.19944 27758 ft 413 kts 335°
2026-04-29 12:45 33.55996 75.18457 27203 ft 408 kts 327°
2026-04-29 12:46 33.58327 75.16555 26674 ft 403 kts 325°
2026-04-29 12:46 33.60803 75.14987 26137 ft 401 kts 337°
2026-04-29 12:46 33.63394 75.13779 25621 ft 398 kts 332°
2026-04-29 12:46 33.65778 75.12138 25111 ft 393 kts 323°
2026-04-29 12:47 33.67980 75.10216 24606 ft 390 kts 321°
2026-04-29 12:47 33.70107 75.08220 24121 ft 387 kts 320°
2026-04-29 12:47 33.72182 75.06179 23621 ft 384 kts 319°
2026-04-29 12:47 33.74221 75.04129 23055 ft 380 kts 319°
2026-04-29 12:48 33.76234 75.02090 22479 ft 377 kts 319°
2026-04-29 12:48 33.78227 75.00062 21919 ft 373 kts 316°
2026-04-29 12:48 33.79976 74.97789 21396 ft 369 kts 306°
2026-04-29 12:48 33.81602 74.95422 20872 ft 366 kts 314°
2026-04-29 12:49 33.83449 74.93328 20359 ft 364 kts 317°
2026-04-29 12:49 33.85213 74.91226 19831 ft 361 kts 306°
2026-04-29 12:49 33.86392 74.88591 19345 ft 357 kts 292°
2026-04-29 12:49 33.87585 74.85986 18837 ft 355 kts 309°
2026-04-29 12:50 33.89202 74.83742 18352 ft 354 kts 310°
2026-04-29 12:50 33.90454 74.81230 17782 ft 351 kts 287°
2026-04-29 12:50 33.90708 74.78342 17224 ft 348 kts 262°
2026-04-29 12:50 33.89920 74.75622 16676 ft 346 kts 237°
2026-04-29 12:51 33.88245 74.73589 16128 ft 344 kts 211°
2026-04-29 12:51 33.86015 74.72638 15587 ft 342 kts 185°
2026-04-29 12:51 33.83681 74.72953 15060 ft 339 kts 159°
2026-04-29 12:51 33.81715 74.74460 14537 ft 336 kts 133°
2026-04-29 12:52 33.80520 74.76839 14028 ft 335 kts 107°
2026-04-29 12:52 33.80336 74.79596 13487 ft 333 kts 80°
2026-04-29 12:52 33.81205 74.82146 12919 ft 332 kts 54°
2026-04-29 12:52 33.82912 74.83926 12379 ft 332 kts 27°
2026-04-29 12:53 33.85096 74.84795 11844 ft 330 kts 15°
2026-04-29 12:53 33.87258 74.85674 11310 ft 327 kts 28°
2026-04-29 12:53 33.89061 74.87280 10797 ft 321 kts 47°
2026-04-29 12:53 33.90605 74.89215 10280 ft 319 kts 45°
2026-04-29 12:54 33.92463 74.90634 9749 ft 320 kts 18°
2026-04-29 12:54 33.94656 74.90822 9190 ft 319 kts 349°
2026-04-29 12:54 33.96653 74.89721 8631 ft 317 kts 320°
2026-04-29 12:54 33.97934 74.87617 8163 ft 310 kts 290°
2026-04-29 12:55 33.98161 74.85182 7701 ft 279 kts 260°
2026-04-29 12:55 33.97433 74.83157 7252 ft 251 kts 234°
2026-04-29 12:55 33.96747 74.81366 6930 ft 227 kts 262°
2026-04-29 12:55 33.97038 74.79621 6580 ft 206 kts 295°
2026-04-29 12:56 33.97746 74.78204 6102 ft 191 kts 316°
2026-04-29 12:56 33.98794 74.77201 5661 ft 206 kts 325°
2026-04-29 12:56 33.99835 74.75874 5806 ft 233 kts 294°
2026-04-29 12:56 34.00020 74.73931 6068 ft 241 kts 253°
2026-04-29 12:57 33.99246 74.72184 6414 ft 242 kts 225°
2026-04-29 12:57 33.97891 74.71017 6904 ft 241 kts 203°
2026-04-29 12:57 33.96326 74.70290 7518 ft 242 kts 192°
2026-04-29 12:57 33.94660 74.70222 8201 ft 244 kts 163°
2026-04-29 12:58 33.93166 74.71143 8317 ft 243 kts 141°
2026-04-29 12:58 33.91894 74.72507 8164 ft 246 kts 134°
2026-04-29 12:58 33.90779 74.74055 8411 ft 246 kts 128°
2026-04-29 12:58 33.89742 74.75657 8800 ft 232 kts 129°
2026-04-29 12:59 33.88797 74.77082 9006 ft 206 kts 126°
2026-04-29 12:59 33.87997 74.78403 8908 ft 190 kts 126°
2026-04-29 12:59 33.87184 74.79664 8496 ft 192 kts 128°
2026-04-29 12:59 33.86300 74.81033 8244 ft 233 kts 128°
2026-04-29 13:00 33.85196 74.82716 8371 ft 278 kts 124°
2026-04-29 13:00 33.84105 74.84837 8588 ft 315 kts 118°
2026-04-29 13:00 33.83127 74.87282 9321 ft 335 kts 108°
2026-04-29 13:00 33.82881 74.90131 9993 ft 357 kts 83°
2026-04-29 13:01 33.83741 74.92991 10240 ft 381 kts 57°
2026-04-29 13:01 33.85585 74.95113 10160 ft 361 kts 29°
2026-04-29 13:01 33.87933 74.95854 10000 ft 342 kts 360°
2026-04-29 13:01 33.90142 74.95088 9616 ft 331 kts 326°
2026-04-29 13:02 33.91609 74.93025 8931 ft 329 kts 292°
2026-04-29 13:02 33.92192 74.90358 8227 ft 330 kts 283°
2026-04-29 13:02 33.92678 74.87706 7871 ft 318 kts 280°
2026-04-29 13:02 33.93332 74.85251 7741 ft 299 kts 298°
2026-04-29 13:03 33.94637 74.83517 7499 ft 261 kts 326°
2026-04-29 13:03 33.96025 74.82335 7064 ft 231 kts 323°
2026-04-29 13:03 33.97244 74.81194 6530 ft 217 kts 321°
2026-04-29 13:03 33.98338 74.79978 5932 ft 206 kts 312°
2026-04-29 13:04 33.99223 74.78692 6290 ft 208 kts 312°
2026-04-29 13:04 34.00431 74.77489 6551 ft 239 kts 346°
2026-04-29 13:04 34.02030 74.77662 7499 ft 231 kts 34°
2026-04-29 13:04 34.02904 74.79071 8733 ft 205 kts 85°
2026-04-29 13:05 34.02567 74.80536 10021 ft 177 kts 138°
2026-04-29 13:05 34.01417 74.81067 10526 ft 195 kts 184°
2026-04-29 13:05 34.00002 74.80975 10931 ft 212 kts 164°
2026-04-29 13:05 33.98498 74.81578 11024 ft 238 kts 158°
2026-04-29 13:06 33.96993 74.82413 10943 ft 237 kts 148°
2026-04-29 13:06 33.95652 74.83533 10976 ft 232 kts 141°
2026-04-29 13:06 33.94392 74.84745 10897 ft 233 kts 139°
2026-04-29 13:06 33.93146 74.86007 10790 ft 235 kts 139°
2026-04-29 13:07 33.91887 74.87271 10728 ft 241 kts 140°
2026-04-29 13:07 33.90565 74.88598 10736 ft 251 kts 139°
2026-04-29 13:07 33.89222 74.89947 10736 ft 252 kts 139°
2026-04-29 13:07 33.87876 74.91299 10611 ft 252 kts 139°
2026-04-29 13:08 33.86551 74.92625 10248 ft 251 kts 139°
2026-04-29 13:08 33.85215 74.93959 9906 ft 248 kts 139°
2026-04-29 13:08 33.83887 74.95282 9509 ft 247 kts 139°
2026-04-29 13:08 33.82562 74.96600 9076 ft 247 kts 139°
2026-04-29 13:09 33.81243 74.97914 8690 ft 245 kts 139°
2026-04-29 13:09 33.79931 74.99221 8259 ft 246 kts 139°
2026-04-29 13:09 33.78615 75.00523 7857 ft 243 kts 139°
2026-04-29 13:09 33.77309 75.01809 7476 ft 242 kts 140°
2026-04-29 13:10 33.75992 75.03074 7108 ft 241 kts 140°
2026-04-29 13:10 33.74683 75.04324 6921 ft 240 kts 140°
2026-04-29 13:10 33.73277 75.05382 6769 ft 241 kts 161°
2026-04-29 13:10 33.71622 75.05520 6626 ft 242 kts 191°
2026-04-29 13:11 33.70130 75.04633 6476 ft 243 kts 222°
2026-04-29 13:11 33.69226 75.02935 6602 ft 247 kts 254°
2026-04-29 13:11 33.69170 75.00880 7104 ft 249 kts 284°
2026-04-29 13:11 33.69923 74.99047 7350 ft 247 kts 312°
2026-04-29 13:12 33.71195 74.97709 7389 ft 247 kts 324°
2026-04-29 13:12 33.72660 74.96613 7391 ft 248 kts 336°
2026-04-29 13:12 33.74316 74.96118 7393 ft 246 kts 357°
2026-04-29 13:12 33.76025 74.95951 7431 ft 247 kts 356°
2026-04-29 13:13 33.77744 74.95762 7442 ft 248 kts 356°
2026-04-29 13:13 33.79466 74.95680 7450 ft 247 kts
2026-04-29 13:13 33.81180 74.95522 7485 ft 248 kts 351°
2026-04-29 13:13 33.82892 74.95204 7464 ft 250 kts 346°
2026-04-29 13:14 33.84426 74.94278 7466 ft 248 kts 316°
2026-04-29 13:14 33.85579 74.92744 7480 ft 248 kts 312°
2026-04-29 13:14 33.86747 74.91292 7488 ft 241 kts 315°
2026-04-29 13:14 33.87956 74.89860 7508 ft 240 kts 315°
2026-04-29 13:15 33.89081 74.88537 7526 ft 211 kts 315°
2026-04-29 13:15 33.90065 74.87382 7501 ft 184 kts 315°
2026-04-29 13:15 33.90917 74.86386 7497 ft 160 kts 315°
2026-04-29 13:15 33.91674 74.85449 7517 ft 155 kts 312°
2026-04-29 13:16 33.92459 74.84561 7526 ft 155 kts 321°
2026-04-29 13:16 33.93267 74.83704 7526 ft 155 kts 315°
2026-04-29 13:16 33.94045 74.82777 7262 ft 164 kts 316°
2026-04-29 13:16 33.94880 74.81852 6879 ft 160 kts 316°
2026-04-29 13:17 33.95656 74.80935 6555 ft 153 kts 315°
2026-04-29 13:17 33.96412 74.80052 6074 ft 150 kts 317°
2026-04-29 13:17 33.97144 74.79199 5684 ft 143 kts 318°
2026-04-29 13:17 33.97878 74.78352 5468 ft 142 kts 315°
2026-04-29 13:18 33.98387 74.77757 5450 ft 61 kts 316°
2026-04-29 13:18 33.98634 74.77481 5446 ft 42 kts 315°
2026-04-29 13:18 33.98786 74.77307 5441 ft 27 kts 317°
2026-04-29 13:18 33.98891 74.77126 5436 ft 27 kts 263°
2026-04-29 13:19 33.98807 74.76992 5433 ft 21 kts 221°
2026-04-29 13:19 33.98735 74.76911 5433 ft 0 kts 225°
2026-04-29 13:19 33.96112 74.80399 6284 ft 151 kts 316°
2026-04-29 13:20 33.96736 74.79674 5921 ft 146 kts 316°
2026-04-29 13:20 33.97468 74.78836 5567 ft 150 kts 317°
2026-04-29 13:20 33.96218 74.80276 6196 ft 150 kts 316°
2026-04-29 13:20 33.96931 74.79446 5815 ft 145 kts 316°
2026-04-29 13:21 33.97667 74.78603 5489 ft 149 kts 314°
2026-04-29 13:21 33.97418 74.78891 5578 ft 149 kts 317°